Time,TemperatureF,DewpointF,PressureIn,WindDirection,WindDirectionDegrees,WindSpeedMPH,WindSpeedGustMPH,Humidity,HourlyPrecipIn,Conditions,Clouds,dailyrainin,SoftwareType,DateUTC
2013-06-29 00:01:00,62.4,58.2,29.57,North,0,0.0,0.0,86,0.00,,,0.08,WUHU21623XXSP,2013-06-29 04:01:00,
2013-06-29 00:02:00,62.4,58.2,29.57,North,0,0.0,0.0,86,0.00,,,0.08,WUHU21623XXSP,2013-06-29 04:02:00,
2013-06-29 00:07:00,62.2,58.0,29.57,North,0,0.0,0.0,86,0.00,,,0.00,WUHU21623XXSP,2013-06-29 04:07:00,
2013-06-29 00:12:00,62.4,58.0,29.57,North,0,0.0,0.0,86,0.00,,,0.00,WUHU21623XXSP,2013-06-29 04:12:00,
2013-06-29 00:17:00,62.2,58.3,29.57,North,0,0.0,0.0,87,0.00,,,0.00,WUHU21623XXSP,2013-06-29 04:17:00,
2013-06-29 00:22:00,62.2,58.3,29.57,North,0,0.0,0.0,87,0.00,,,0.00,WUHU21623XXSP,2013-06-29 04:22:00,
2013-06-29 00:27:00,62.2,58.3,29.57,North,0,0.0,0.0,87,0.00,,,0.00,WUHU21623XXSP,2013-06-29 04:27:00,
2013-06-29 00:32:00,62.2,58.3,29.57,North,0,0.0,0.0,87,0.00,,,0.00,WUHU21623XXSP,2013-06-29 04:32:00,
2013-06-29 00:37:00,62.4,58.3,29.58,North,0,0.0,0.0,87,0.00,,,0.00,WUHU21623XXSP,2013-06-29 04:37:00,
2013-06-29 00:42:00,62.4,58.5,29.58,North,0,0.0,0.0,87,0.00,,,0.00,WUHU21623XXSP,2013-06-29 04:42:00,
2013-06-29 00:47:00,62.4,58.5,29.58,North,0,0.0,0.0,87,0.00,,,0.00,WUHU21623XXSP,2013-06-29 04:47:00,
2013-06-29 00:52:00,62.4,58.5,29.58,North,0,0.0,0.0,87,0.00,,,0.00,WUHU21623XXSP,2013-06-29 04:52:00,
2013-06-29 00:56:00,62.4,58.5,29.57,NNW,337,0.0,0.0,87,0.00,,,0.00,WUHU21623XXSP,2013-06-29 04:56:00,
2013-06-29 00:57:00,62.4,58.5,29.58,NNW,337,0.0,0.0,87,0.00,,,0.00,WUHU21623XXSP,2013-06-29 04:57:00,
2013-06-29 01:02:00,62.4,58.5,29.57,NNW,337,0.0,0.0,87,0.00,,,0.00,WUHU21623XXSP,2013-06-29 05:02:00,
2013-06-29 01:08:00,62.4,58.5,29.57,NNW,337,0.0,0.0,87,0.00,,,0.00,WUHU21623XXSP,2013-06-29 05:08:00,
2013-06-29 01:13:00,62.4,58.5,29.57,NNW,337,0.0,0.0,87,0.00,,,0.00,WUHU21623XXSP,2013-06-29 05:13:00,
2013-06-29 01:18:00,62.4,58.5,29.57,NNW,337,0.0,0.0,87,0.00,,,0.00,WUHU21623XXSP,2013-06-29 05:18:00,
2013-06-29 01:23:00,62.6,58.7,29.57,NNW,337,0.0,0.0,87,0.00,,,0.00,WUHU21623XXSP,2013-06-29 05:23:00,
2013-06-29 01:28:00,62.6,58.7,29.57,NNW,337,0.0,0.0,87,0.00,,,0.00,WUHU21623XXSP,2013-06-29 05:28:00,
2013-06-29 01:33:00,62.8,58.9,29.57,NNW,337,0.0,0.0,87,0.00,,,0.00,WUHU21623XXSP,2013-06-29 05:33:00,
2013-06-29 01:38:00,62.8,58.9,29.57,NNW,337,0.0,0.0,87,0.00,,,0.00,WUHU21623XXSP,2013-06-29 05:38:00,
2013-06-29 01:43:00,62.8,59.2,29.57,NNW,337,0.0,0.0,88,0.00,,,0.00,WUHU21623XXSP,2013-06-29 05:43:00,
2013-06-29 01:48:00,62.8,59.2,29.57,NNW,337,0.0,0.0,88,0.00,,,0.00,WUHU21623XXSP,2013-06-29 05:48:00,
2013-06-29 01:53:00,63.0,59.4,29.57,NNW,337,0.0,0.0,88,0.00,,,0.00,WUHU21623XXSP,2013-06-29 05:53:00,
2013-06-29 01:58:00,63.0,59.4,29.56,NNW,337,0.0,0.0,88,0.00,,,0.00,WUHU21623XXSP,2013-06-29 05:58:00,
2013-06-29 02:03:00,63.0,59.4,29.56,NNW,337,0.0,0.0,88,0.00,,,0.00,WUHU21623XXSP,2013-06-29 06:03:00,
2013-06-29 02:08:00,63.0,59.4,29.56,NNW,337,0.0,0.0,88,0.00,,,0.00,WUHU21623XXSP,2013-06-29 06:08:00,
2013-06-29 02:13:00,63.0,59.4,29.56,NNW,337,0.0,0.0,88,0.00,,,0.00,WUHU21623XXSP,2013-06-29 06:13:00,
2013-06-29 02:18:00,63.1,59.6,29.56,NNW,337,0.0,0.0,88,0.00,,,0.00,WUHU21623XXSP,2013-06-29 06:18:00,
2013-06-29 02:23:00,63.1,59.6,29.56,NNW,337,0.0,0.0,88,0.00,,,0.00,WUHU21623XXSP,2013-06-29 06:23:00,
2013-06-29 02:28:00,63.1,59.6,29.57,NNW,337,0.0,0.0,88,0.00,,,0.00,WUHU21623XXSP,2013-06-29 06:28:00,
2013-06-29 02:33:00,63.1,59.6,29.56,NNW,337,0.0,0.0,88,0.00,,,0.00,WUHU21623XXSP,2013-06-29 06:33:00,
2013-06-29 02:38:00,63.1,59.6,29.56,NNW,337,0.0,0.0,88,0.00,,,0.00,WUHU21623XXSP,2013-06-29 06:38:00,
2013-06-29 02:43:00,63.1,59.6,29.56,NNW,337,0.0,0.0,88,0.00,,,0.00,WUHU21623XXSP,2013-06-29 06:43:00,
2013-06-29 02:48:00,63.1,59.6,29.57,NNW,337,0.0,0.0,88,0.00,,,0.00,WUHU21623XXSP,2013-06-29 06:48:00,
2013-06-29 02:53:00,63.1,59.6,29.56,NNW,337,0.0,0.0,88,0.00,,,0.00,WUHU21623XXSP,2013-06-29 06:53:00,
2013-06-29 02:58:00,63.1,59.6,29.56,NNW,337,0.0,0.0,88,0.00,,,0.00,WUHU21623XXSP,2013-06-29 06:58:00,
2013-06-29 03:03:00,63.0,59.4,29.57,NNW,337,0.0,0.0,88,0.00,,,0.00,WUHU21623XXSP,2013-06-29 07:03:00,
2013-06-29 03:08:00,63.0,59.4,29.56,NNW,337,0.0,0.0,88,0.00,,,0.00,WUHU21623XXSP,2013-06-29 07:08:00,
2013-06-29 03:13:00,63.0,59.4,29.57,NNW,337,0.0,0.0,88,0.00,,,0.00,WUHU21623XXSP,2013-06-29 07:13:00,
2013-06-29 03:18:00,63.0,59.4,29.57,NNW,337,0.0,0.0,88,0.00,,,0.00,WUHU21623XXSP,2013-06-29 07:18:00,
2013-06-29 03:23:00,63.0,59.4,29.57,NNW,337,0.0,0.0,88,0.00,,,0.00,WUHU21623XXSP,2013-06-29 07:23:00,
2013-06-29 03:28:00,63.0,59.4,29.56,NNW,337,0.0,0.0,88,0.00,,,0.00,WUHU21623XXSP,2013-06-29 07:28:00,
2013-06-29 03:33:00,63.0,59.4,29.56,NNW,337,0.0,0.0,88,0.00,,,0.00,WUHU21623XXSP,2013-06-29 07:33:00,
2013-06-29 03:38:00,63.0,59.4,29.56,NNW,337,0.0,0.0,88,0.00,,,0.00,WUHU21623XXSP,2013-06-29 07:38:00,
2013-06-29 03:43:00,63.1,59.6,29.56,NNW,337,0.0,0.0,88,0.00,,,0.00,WUHU21623XXSP,2013-06-29 07:43:00,
2013-06-29 03:48:00,63.1,59.6,29.56,NNW,337,0.0,0.0,88,0.00,,,0.00,WUHU21623XXSP,2013-06-29 07:48:00,
2013-06-29 03:53:00,63.1,59.6,29.56,NNW,337,0.0,0.0,88,0.00,,,0.00,WUHU21623XXSP,2013-06-29 07:53:00,
2013-06-29 03:58:00,63.1,59.6,29.56,NNW,337,0.0,0.0,88,0.00,,,0.00,WUHU21623XXSP,2013-06-29 07:58:00,
2013-06-29 04:03:00,63.1,59.6,29.56,NNW,337,0.0,0.0,88,0.00,,,0.00,WUHU21623XXSP,2013-06-29 08:03:00,
2013-06-29 04:08:00,63.1,59.6,29.56,NNW,337,0.0,0.0,88,0.00,,,0.00,WUHU21623XXSP,2013-06-29 08:08:00,
2013-06-29 04:13:00,63.1,59.6,29.56,NNW,337,0.0,0.0,88,0.00,,,0.00,WUHU21623XXSP,2013-06-29 08:13:00,
2013-06-29 04:18:00,63.0,59.4,29.56,NNW,337,0.0,0.0,88,0.00,,,0.00,WUHU21623XXSP,2013-06-29 08:18:00,
2013-06-29 04:23:00,62.8,59.4,29.56,NNW,337,0.0,0.0,88,0.00,,,0.00,WUHU21623XXSP,2013-06-29 08:23:00,
2013-06-29 04:28:00,62.8,59.2,29.56,NNW,337,0.0,0.0,88,0.00,,,0.00,WUHU21623XXSP,2013-06-29 08:28:00,
2013-06-29 04:33:00,62.8,59.2,29.56,NNW,337,0.0,0.0,88,0.00,,,0.00,WUHU21623XXSP,2013-06-29 08:33:00,
2013-06-29 04:38:00,62.6,59.0,29.56,NNW,337,0.0,0.0,88,0.00,,,0.00,WUHU21623XXSP,2013-06-29 08:38:00,
2013-06-29 04:43:00,62.6,59.0,29.56,NNW,337,0.0,0.0,88,0.00,,,0.00,WUHU21623XXSP,2013-06-29 08:43:00,
2013-06-29 04:48:00,62.4,58.9,29.56,NNW,337,0.0,0.0,88,0.00,,,0.00,WUHU21623XXSP,2013-06-29 08:48:00,
2013-06-29 04:53:00,62.6,59.0,29.56,NNW,337,0.0,0.0,88,0.00,,,0.00,WUHU21623XXSP,2013-06-29 08:53:00,
2013-06-29 04:58:00,62.6,59.0,29.56,NNW,337,0.0,0.0,88,0.00,,,0.00,WUHU21623XXSP,2013-06-29 08:58:00,
2013-06-29 05:03:00,62.6,59.0,29.56,NNW,337,0.0,0.0,88,0.00,,,0.00,WUHU21623XXSP,2013-06-29 09:03:00,
2013-06-29 05:08:00,62.4,58.9,29.56,NNW,337,0.0,0.0,88,0.00,,,0.00,WUHU21623XXSP,2013-06-29 09:08:00,
2013-06-29 05:13:00,62.6,59.0,29.57,NW,315,0.0,0.0,88,0.00,,,0.00,WUHU21623XXSP,2013-06-29 09:13:00,
2013-06-29 05:18:00,62.4,59.2,29.56,NW,315,0.0,0.0,89,0.00,,,0.00,WUHU21623XXSP,2013-06-29 09:18:00,
2013-06-29 05:23:00,62.4,59.2,29.57,NW,315,0.0,0.0,89,0.00,,,0.00,WUHU21623XXSP,2013-06-29 09:23:00,
2013-06-29 05:28:00,62.4,59.2,29.57,NW,315,0.0,0.0,89,0.00,,,0.00,WUHU21623XXSP,2013-06-29 09:28:00,
2013-06-29 05:33:00,62.4,59.2,29.57,NW,315,0.0,0.0,89,0.00,,,0.00,WUHU21623XXSP,2013-06-29 09:33:00,
2013-06-29 05:38:00,62.4,59.2,29.57,NW,315,0.0,0.0,89,0.00,,,0.00,WUHU21623XXSP,2013-06-29 09:38:00,
2013-06-29 05:43:00,62.4,59.2,29.57,NW,315,0.0,0.0,89,0.00,,,0.00,WUHU21623XXSP,2013-06-29 09:43:00,
2013-06-29 05:48:00,62.4,59.2,29.58,NW,315,0.0,0.0,89,0.00,,,0.00,WUHU21623XXSP,2013-06-29 09:48:00,
2013-06-29 05:53:00,62.4,59.2,29.58,NW,315,0.0,0.0,89,0.00,,,0.00,WUHU21623XXSP,2013-06-29 09:53:00,
2013-06-29 05:58:00,62.4,59.2,29.58,North,0,0.0,0.0,89,0.00,,,0.00,WUHU21623XXSP,2013-06-29 09:58:00,
2013-06-29 06:03:00,62.4,59.2,29.58,WNW,292,0.0,0.0,89,0.00,,,0.00,WUHU21623XXSP,2013-06-29 10:03:00,
2013-06-29 06:08:00,62.4,59.2,29.58,WNW,292,0.0,0.0,89,0.00,,,0.00,WUHU21623XXSP,2013-06-29 10:08:00,
2013-06-29 06:13:00,62.4,59.2,29.57,NW,315,0.0,0.0,89,0.00,,,0.00,WUHU21623XXSP,2013-06-29 10:13:00,
2013-06-29 06:18:00,62.4,59.2,29.58,NW,315,0.0,0.0,89,0.00,,,0.00,WUHU21623XXSP,2013-06-29 10:18:00,
2013-06-29 06:23:00,62.4,59.2,29.59,NW,315,0.0,0.0,89,0.00,,,0.00,WUHU21623XXSP,2013-06-29 10:23:00,
2013-06-29 06:28:00,62.4,59.2,29.59,NW,315,0.0,0.0,89,0.00,,,0.00,WUHU21623XXSP,2013-06-29 10:28:00,
2013-06-29 06:33:00,62.4,59.2,29.59,NW,315,0.0,0.0,89,0.00,,,0.00,WUHU21623XXSP,2013-06-29 10:33:00,
2013-06-29 06:38:00,62.4,59.2,29.59,NW,315,0.0,0.0,89,0.00,,,0.00,WUHU21623XXSP,2013-06-29 10:38:00,
2013-06-29 06:43:00,62.4,58.9,29.59,NW,315,0.0,0.0,88,0.00,,,0.00,WUHU21623XXSP,2013-06-29 10:43:00,
2013-06-29 06:48:00,62.4,59.2,29.58,NW,315,0.0,0.0,89,0.00,,,0.00,WUHU21623XXSP,2013-06-29 10:48:00,
2013-06-29 06:53:00,62.4,59.2,29.59,NW,315,0.0,0.0,89,0.00,,,0.00,WUHU21623XXSP,2013-06-29 10:53:00,
2013-06-29 06:58:00,62.4,59.2,29.59,NW,315,0.0,0.0,89,0.00,,,0.00,WUHU21623XXSP,2013-06-29 10:58:00,
2013-06-29 07:03:00,62.4,59.2,29.59,NW,315,0.0,0.0,89,0.00,,,0.00,WUHU21623XXSP,2013-06-29 11:03:00,
2013-06-29 07:09:00,62.4,59.2,29.59,NW,315,0.0,0.0,89,0.00,,,0.00,WUHU21623XXSP,2013-06-29 11:09:00,
2013-06-29 07:14:00,62.4,59.2,29.60,NW,315,0.0,0.0,89,0.00,,,0.00,WUHU21623XXSP,2013-06-29 11:14:00,
2013-06-29 07:19:00,62.4,59.2,29.60,NW,315,0.0,0.0,89,0.00,,,0.00,WUHU21623XXSP,2013-06-29 11:19:00,
2013-06-29 07:24:00,62.6,59.4,29.59,NW,315,0.0,0.0,89,0.00,,,0.00,WUHU21623XXSP,2013-06-29 11:24:00,
2013-06-29 07:29:00,62.6,59.4,29.59,NW,315,0.0,0.0,89,0.00,,,0.00,WUHU21623XXSP,2013-06-29 11:29:00,
2013-06-29 07:34:00,62.8,59.6,29.59,NW,315,0.0,0.0,89,0.00,,,0.00,WUHU21623XXSP,2013-06-29 11:34:00,
2013-06-29 07:39:00,62.8,59.2,29.59,NW,315,0.0,0.0,88,0.00,,,0.00,WUHU21623XXSP,2013-06-29 11:39:00,
2013-06-29 07:44:00,62.8,59.2,29.59,NW,315,0.0,0.0,88,0.00,,,0.00,WUHU21623XXSP,2013-06-29 11:44:00,
2013-06-29 07:49:00,62.8,59.2,29.59,NW,315,0.0,0.0,88,0.00,,,0.00,WUHU21623XXSP,2013-06-29 11:49:00,
2013-06-29 07:54:00,63.0,59.4,29.60,NW,315,0.0,0.0,88,0.00,,,0.00,WUHU21623XXSP,2013-06-29 11:54:00,
2013-06-29 07:59:00,63.0,59.4,29.60,NW,315,0.0,0.0,88,0.00,,,0.00,WUHU21623XXSP,2013-06-29 11:59:00,
2013-06-29 08:04:00,63.0,59.4,29.60,NW,315,0.0,0.0,88,0.00,,,0.00,WUHU21623XXSP,2013-06-29 12:04:00,
2013-06-29 08:09:00,63.1,59.6,29.59,NW,315,0.0,0.0,88,0.00,,,0.00,WUHU21623XXSP,2013-06-29 12:09:00,
2013-06-29 08:14:00,63.3,59.8,29.60,NW,315,0.0,0.0,88,0.00,,,0.00,WUHU21623XXSP,2013-06-29 12:14:00,
2013-06-29 08:19:00,63.5,59.9,29.59,NW,315,0.0,0.0,88,0.00,,,0.00,WUHU21623XXSP,2013-06-29 12:19:00,
2013-06-29 08:24:00,63.7,60.1,29.60,NW,315,0.0,0.0,88,0.00,,,0.00,WUHU21623XXSP,2013-06-29 12:24:00,
2013-06-29 08:29:00,63.7,60.1,29.60,NW,315,0.0,0.0,88,0.00,,,0.00,WUHU21623XXSP,2013-06-29 12:29:00,
2013-06-29 08:34:00,64.0,60.5,29.60,NW,315,0.0,0.0,88,0.00,,,0.00,WUHU21623XXSP,2013-06-29 12:34:00,
2013-06-29 08:39:00,64.0,60.5,29.60,NW,315,0.0,0.0,88,0.00,,,0.00,WUHU21623XXSP,2013-06-29 12:39:00,
2013-06-29 08:44:00,64.0,60.5,29.60,NW,315,0.0,0.0,88,0.00,,,0.00,WUHU21623XXSP,2013-06-29 12:44:00,
2013-06-29 08:49:00,64.2,60.7,29.60,NW,315,0.0,0.0,88,0.00,,,0.00,WUHU21623XXSP,2013-06-29 12:49:00,
2013-06-29 08:54:00,64.2,60.7,29.60,NW,315,0.0,0.0,88,0.00,,,0.00,WUHU21623XXSP,2013-06-29 12:54:00,
2013-06-29 08:59:00,64.2,60.7,29.60,NW,315,0.0,0.0,88,0.00,,,0.00,WUHU21623XXSP,2013-06-29 12:59:00,
2013-06-29 09:04:00,64.6,61.0,29.60,NW,315,0.0,0.0,88,0.00,,,0.00,WUHU21623XXSP,2013-06-29 13:04:00,
2013-06-29 09:09:00,64.8,61.2,29.60,NW,315,0.0,0.0,88,0.00,,,0.00,WUHU21623XXSP,2013-06-29 13:09:00,
2013-06-29 09:14:00,64.9,61.3,29.60,NW,315,0.0,0.0,88,0.00,,,0.00,WUHU21623XXSP,2013-06-29 13:14:00,
2013-06-29 09:19:00,65.3,61.3,29.61,NW,315,0.0,0.0,87,0.00,,,0.00,WUHU21623XXSP,2013-06-29 13:19:00,
2013-06-29 09:24:00,65.8,61.8,29.61,NW,315,0.0,0.0,87,0.00,,,0.00,WUHU21623XXSP,2013-06-29 13:24:00,
2013-06-29 09:29:00,66.0,62.0,29.61,ENE,67,0.0,0.0,87,0.00,,,0.00,WUHU21623XXSP,2013-06-29 13:29:00,
2013-06-29 09:34:00,66.0,61.7,29.61,ENE,67,0.0,0.0,86,0.00,,,0.00,WUHU21623XXSP,2013-06-29 13:34:00,
2013-06-29 09:39:00,66.0,61.7,29.60,ENE,67,0.0,0.0,86,0.00,,,0.00,WUHU21623XXSP,2013-06-29 13:39:00,
2013-06-29 09:44:00,66.4,62.0,29.61,NNE,22,0.0,0.0,86,0.00,,,0.00,WUHU21623XXSP,2013-06-29 13:44:00,
2013-06-29 09:49:00,66.4,62.0,29.61,SE,135,0.0,0.0,86,0.00,,,0.00,WUHU21623XXSP,2013-06-29 13:49:00,
2013-06-29 09:54:00,66.7,62.4,29.61,SSE,157,1.6,1.6,86,0.00,,,0.00,WUHU21623XXSP,2013-06-29 13:54:00,
2013-06-29 09:59:00,66.7,62.1,29.61,SSE,157,0.0,1.6,85,0.00,,,0.00,WUHU21623XXSP,2013-06-29 13:59:00,
2013-06-29 10:04:00,66.9,61.7,29.61,WSW,247,0.0,0.0,84,0.00,,,0.00,WUHU21623XXSP,2013-06-29 14:04:00,
2013-06-29 10:09:00,66.9,61.9,29.61,NNW,337,0.0,0.0,84,0.00,,,0.00,WUHU21623XXSP,2013-06-29 14:09:00,
2013-06-29 10:14:00,67.1,62.1,29.61,NE,45,0.0,0.0,84,0.00,,,0.00,WUHU21623XXSP,2013-06-29 14:14:00,
2013-06-29 10:19:00,67.3,62.3,29.61,NE,45,0.0,0.0,83,0.00,,,0.00,WUHU21623XXSP,2013-06-29 14:19:00,
2013-06-29 10:24:00,67.3,62.0,29.61,SSE,157,0.0,0.0,83,0.00,,,0.00,WUHU21623XXSP,2013-06-29 14:24:00,
2013-06-29 10:29:00,67.5,62.1,29.62,SSE,157,0.0,0.0,83,0.00,,,0.00,WUHU21623XXSP,2013-06-29 14:29:00,
2013-06-29 10:34:00,67.6,62.3,29.61,NNE,22,0.0,0.0,83,0.00,,,0.00,WUHU21623XXSP,2013-06-29 14:34:00,
2013-06-29 10:39:00,67.8,62.5,29.61,North,0,0.0,0.0,83,0.00,,,0.00,WUHU21623XXSP,2013-06-29 14:39:00,
2013-06-29 10:44:00,67.8,62.2,29.61,ESE,112,0.0,0.0,82,0.00,,,0.00,WUHU21623XXSP,2013-06-29 14:44:00,
2013-06-29 10:49:00,68.2,62.2,29.61,ESE,112,0.0,0.0,81,0.00,,,0.00,WUHU21623XXSP,2013-06-29 14:49:00,
2013-06-29 10:54:00,68.5,62.5,29.61,NNW,337,0.0,0.0,81,0.00,,,0.00,WUHU21623XXSP,2013-06-29 14:54:00,
2013-06-29 10:59:00,68.9,62.7,29.61,NNW,337,0.0,0.0,82,0.00,,,0.00,WUHU21623XXSP,2013-06-29 14:59:00,
2013-06-29 11:04:00,68.9,62.8,29.61,NE,45,0.0,1.1,81,0.00,,,0.00,WUHU21623XXSP,2013-06-29 15:04:00,
2013-06-29 11:09:00,69.1,62.8,29.61,NNE,22,0.0,1.1,80,0.00,,,0.00,WUHU21623XXSP,2013-06-29 15:09:00,
2013-06-29 11:14:00,69.1,62.7,29.61,South,180,0.0,0.0,80,0.00,,,0.00,WUHU21623XXSP,2013-06-29 15:14:00,
2013-06-29 11:19:00,69.1,62.7,29.61,South,180,0.0,0.0,80,0.00,,,0.00,WUHU21623XXSP,2013-06-29 15:19:00,
2013-06-29 11:24:00,69.3,62.8,29.62,SSE,157,0.0,0.0,80,0.00,,,0.00,WUHU21623XXSP,2013-06-29 15:24:00,
2013-06-29 11:29:00,69.4,63.0,29.62,North,0,0.0,0.0,80,0.00,,,0.00,WUHU21623XXSP,2013-06-29 15:29:00,
2013-06-29 11:34:00,69.6,63.2,29.62,SE,135,0.0,0.0,80,0.00,,,0.00,WUHU21623XXSP,2013-06-29 15:34:00,
2013-06-29 11:39:00,69.8,62.6,29.62,NNW,337,0.0,0.0,78,0.00,,,0.00,WUHU21623XXSP,2013-06-29 15:39:00,
2013-06-29 11:44:00,69.8,62.6,29.62,West,270,0.0,0.0,78,0.00,,,0.00,WUHU21623XXSP,2013-06-29 15:44:00,
2013-06-29 11:49:00,69.8,62.6,29.62,NW,315,0.0,0.0,78,0.00,,,0.00,WUHU21623XXSP,2013-06-29 15:49:00,
2013-06-29 11:54:00,70.0,62.7,29.62,North,0,0.0,0.0,78,0.00,,,0.00,WUHU21623XXSP,2013-06-29 15:54:00,
2013-06-29 11:59:00,70.0,62.7,29.62,NW,315,0.0,0.0,78,0.00,,,0.00,WUHU21623XXSP,2013-06-29 15:59:00,
2013-06-29 12:04:00,69.6,62.0,29.62,SE,135,0.0,0.0,77,0.00,,,0.00,WUHU21623XXSP,2013-06-29 16:04:00,
2013-06-29 12:09:00,69.6,62.0,29.62,North,0,0.0,0.0,77,0.00,,,0.00,WUHU21623XXSP,2013-06-29 16:09:00,
2013-06-29 12:14:00,69.6,62.0,29.62,North,0,0.0,0.0,77,0.00,,,0.00,WUHU21623XXSP,2013-06-29 16:14:00,
2013-06-29 12:19:00,70.0,62.4,29.62,NNE,22,0.0,0.0,77,0.00,,,0.00,WUHU21623XXSP,2013-06-29 16:19:00,
2013-06-29 12:24:00,70.0,62.4,29.62,NW,315,0.0,0.0,76,0.00,,,0.00,WUHU21623XXSP,2013-06-29 16:24:00,
2013-06-29 12:29:00,70.0,62.0,29.62,SE,135,0.0,0.0,76,0.00,,,0.00,WUHU21623XXSP,2013-06-29 16:29:00,
2013-06-29 12:34:00,70.0,62.0,29.62,SE,135,0.0,0.0,75,0.00,,,0.00,WUHU21623XXSP,2013-06-29 16:34:00,
2013-06-29 12:39:00,70.0,61.6,29.62,West,270,0.0,0.0,75,0.00,,,0.00,WUHU21623XXSP,2013-06-29 16:39:00,
2013-06-29 12:45:00,70.3,62.0,29.62,NE,45,0.0,0.0,75,0.00,,,0.00,WUHU21623XXSP,2013-06-29 16:45:00,
2013-06-29 12:50:00,70.3,62.0,29.62,ENE,67,0.0,0.0,75,0.00,,,0.00,WUHU21623XXSP,2013-06-29 16:50:00,
2013-06-29 12:55:00,70.2,61.8,29.62,SSE,157,0.0,0.0,75,0.00,,,0.00,WUHU21623XXSP,2013-06-29 16:55:00,
2013-06-29 12:59:00,70.5,62.2,29.62,NNE,22,0.0,2.9,75,0.00,,,0.00,WUHU21623XXSP,2013-06-29 16:59:00,
2013-06-29 13:05:00,71.2,62.9,29.62,North,0,0.0,2.9,75,0.00,,,0.00,WUHU21623XXSP,2013-06-29 17:05:00,
2013-06-29 13:10:00,71.4,62.7,29.62,NNW,337,0.0,0.0,74,0.00,,,0.00,WUHU21623XXSP,2013-06-29 17:10:00,
2013-06-29 13:15:00,71.8,62.3,29.62,NNW,337,1.6,1.6,72,0.00,,,0.00,WUHU21623XXSP,2013-06-29 17:15:00,
2013-06-29 13:20:00,71.8,62.7,29.62,NW,315,0.0,3.4,73,0.00,,,0.00,WUHU21623XXSP,2013-06-29 17:20:00,
2013-06-29 13:25:00,72.0,62.8,29.62,West,270,0.0,3.4,73,0.00,,,0.00,WUHU21623XXSP,2013-06-29 17:25:00,
2013-06-29 13:30:00,72.3,63.2,29.62,NNW,337,0.0,0.0,73,0.00,,,0.00,WUHU21623XXSP,2013-06-29 17:30:00,
2013-06-29 13:35:00,72.3,62.8,29.62,SW,225,0.0,0.0,72,0.00,,,0.00,WUHU21623XXSP,2013-06-29 17:35:00,
2013-06-29 13:40:00,72.3,62.4,29.62,ENE,67,0.0,0.0,71,0.00,,,0.00,WUHU21623XXSP,2013-06-29 17:40:00,
2013-06-29 13:45:00,72.3,62.8,29.62,SSE,157,0.0,0.0,72,0.00,,,0.00,WUHU21623XXSP,2013-06-29 17:45:00,
2013-06-29 13:50:00,72.3,62.6,29.62,ENE,67,0.0,0.0,72,0.00,,,0.00,WUHU21623XXSP,2013-06-29 17:50:00,
2013-06-29 13:55:00,72.3,62.8,29.62,SE,135,0.0,0.0,72,0.00,,,0.00,WUHU21623XXSP,2013-06-29 17:55:00,
2013-06-29 14:00:00,72.3,62.1,29.62,South,180,0.0,0.0,70,0.00,,,0.00,WUHU21623XXSP,2013-06-29 18:00:00,
2013-06-29 14:05:00,72.3,62.1,29.62,SE,135,0.0,0.0,71,0.00,,,0.00,WUHU21623XXSP,2013-06-29 18:05:00,
2013-06-29 14:10:00,72.1,62.3,29.62,NW,315,0.0,0.0,71,0.00,,,0.00,WUHU21623XXSP,2013-06-29 18:10:00,
2013-06-29 14:15:00,71.8,62.1,29.62,NNE,22,0.0,0.0,71,0.00,,,0.00,WUHU21623XXSP,2013-06-29 18:15:00,
2013-06-29 14:20:00,71.4,61.5,29.62,ESE,112,0.0,0.0,71,0.00,,,0.00,WUHU21623XXSP,2013-06-29 18:20:00,
2013-06-29 14:25:00,71.2,61.4,29.63,WNW,292,0.0,0.0,71,0.00,,,0.00,WUHU21623XXSP,2013-06-29 18:25:00,
2013-06-29 14:30:00,71.2,61.4,29.63,NW,315,0.0,0.0,71,0.00,,,0.00,WUHU21623XXSP,2013-06-29 18:30:00,
2013-06-29 14:35:00,71.2,61.4,29.62,WSW,247,0.0,0.0,71,0.00,,,0.00,WUHU21623XXSP,2013-06-29 18:35:00,
2013-06-29 14:40:00,71.2,61.2,29.62,SE,135,0.0,0.0,71,0.00,,,0.00,WUHU21623XXSP,2013-06-29 18:40:00,
2013-06-29 14:45:00,71.1,61.2,29.63,NNE,22,0.0,0.0,71,0.00,,,0.00,WUHU21623XXSP,2013-06-29 18:45:00,
2013-06-29 14:50:00,71.1,61.4,29.62,SSE,157,5.1,5.1,71,0.00,,,0.00,WUHU21623XXSP,2013-06-29 18:50:00,
2013-06-29 14:55:00,70.9,61.4,29.62,ESE,112,0.0,5.1,72,0.00,,,0.00,WUHU21623XXSP,2013-06-29 18:55:00,
2013-06-29 15:00:00,70.9,61.4,29.63,NW,315,0.0,0.0,72,0.00,,,0.00,WUHU21623XXSP,2013-06-29 19:00:00,
2013-06-29 15:05:00,71.2,61.7,29.62,NNW,337,0.0,0.0,72,0.00,,,0.00,WUHU21623XXSP,2013-06-29 19:05:00,
2013-06-29 15:10:00,71.2,61.7,29.63,SW,225,0.0,0.0,71,0.00,,,0.00,WUHU21623XXSP,2013-06-29 19:10:00,
2013-06-29 15:11:00,71.2,61.7,29.63,SW,225,0.0,0.0,71,0.00,,,0.00,WUHU21623XXSP,2013-06-29 19:11:00,
2013-06-29 15:16:00,71.4,61.0,29.63,SSE,157,0.0,0.0,71,0.00,,,0.00,WUHU21623XXSP,2013-06-29 19:16:00,
2013-06-29 15:21:00,71.4,61.5,29.63,WSW,247,0.0,0.0,70,0.00,,,0.00,WUHU21623XXSP,2013-06-29 19:21:00,
2013-06-29 15:26:00,71.4,61.2,29.64,SE,135,0.0,0.0,70,0.00,,,0.00,WUHU21623XXSP,2013-06-29 19:26:00,
2013-06-29 15:31:00,71.6,61.3,29.64,SSE,157,0.0,0.0,70,0.00,,,0.00,WUHU21623XXSP,2013-06-29 19:31:00,
2013-06-29 15:36:00,72.0,61.7,29.63,SW,225,0.0,0.0,70,0.00,,,0.00,WUHU21623XXSP,2013-06-29 19:36:00,
2013-06-29 15:41:00,72.1,61.9,29.63,ESE,112,0.0,0.0,71,0.00,,,0.00,WUHU21623XXSP,2013-06-29 19:41:00,
2013-06-29 15:46:00,72.3,62.1,29.63,East,90,0.0,0.0,70,0.00,,,0.00,WUHU21623XXSP,2013-06-29 19:46:00,
2013-06-29 15:51:00,72.9,62.2,29.63,SE,135,0.0,0.0,69,0.00,,,0.00,WUHU21623XXSP,2013-06-29 19:51:00,
2013-06-29 15:56:00,73.0,62.3,29.63,WSW,247,0.0,0.0,69,0.00,,,0.00,WUHU21623XXSP,2013-06-29 19:56:00,
2013-06-29 16:01:00,73.2,62.3,29.64,SW,225,0.0,0.0,69,0.00,,,0.00,WUHU21623XXSP,2013-06-29 20:01:00,
2013-06-29 16:06:00,73.4,62.7,29.63,NNE,22,0.0,0.0,69,0.00,,,0.00,WUHU21623XXSP,2013-06-29 20:06:00,
2013-06-29 16:11:00,73.6,62.4,29.64,NE,45,0.0,0.0,68,0.00,,,0.00,WUHU21623XXSP,2013-06-29 20:11:00,
2013-06-29 16:16:00,73.8,62.6,29.64,NNE,22,0.0,0.0,68,0.00,,,0.00,WUHU21623XXSP,2013-06-29 20:16:00,
2013-06-29 16:21:00,73.6,62.4,29.64,South,180,0.0,0.0,68,0.00,,,0.00,WUHU21623XXSP,2013-06-29 20:21:00,
2013-06-29 16:26:00,73.6,62.4,29.64,South,180,0.0,0.0,68,0.00,,,0.00,WUHU21623XXSP,2013-06-29 20:26:00,
2013-06-29 16:31:00,73.2,62.1,29.64,NNE,22,0.0,0.0,68,0.00,,,0.00,WUHU21623XXSP,2013-06-29 20:31:00,
2013-06-29 16:36:00,72.7,62.0,29.65,SSE,157,0.0,0.0,69,0.00,,,0.00,WUHU21623XXSP,2013-06-29 20:36:00,
2013-06-29 16:41:00,72.3,62.1,29.65,SSE,157,0.0,0.0,70,0.02,,,0.00,WUHU21623XXSP,2013-06-29 20:41:00,
2013-06-29 16:46:00,72.1,62.1,29.65,SSE,157,0.0,0.0,71,0.02,,,0.02,WUHU21623XXSP,2013-06-29 20:46:00,
2013-06-29 16:51:00,71.4,61.9,29.65,SSE,157,0.0,0.0,72,0.02,,,0.02,WUHU21623XXSP,2013-06-29 20:51:00,
2013-06-29 16:56:00,71.4,61.9,29.65,SSE,157,0.0,0.0,72,0.02,,,0.02,WUHU21623XXSP,2013-06-29 20:56:00,
2013-06-29 17:01:00,71.2,61.9,29.65,SSE,157,0.0,0.0,73,0.02,,,0.02,WUHU21623XXSP,2013-06-29 21:01:00,
2013-06-29 17:06:00,70.9,62.3,29.65,SSE,157,0.0,0.0,75,0.02,,,0.02,WUHU21623XXSP,2013-06-29 21:06:00,
2013-06-29 17:11:00,70.5,62.5,29.65,SSE,157,0.0,0.0,76,0.02,,,0.02,WUHU21623XXSP,2013-06-29 21:11:00,
2013-06-29 17:16:00,70.3,62.3,29.65,SSE,157,0.0,0.0,76,0.02,,,0.02,WUHU21623XXSP,2013-06-29 21:16:00,
2013-06-29 17:21:00,70.2,62.5,29.65,NW,315,2.9,2.9,77,0.02,,,0.02,WUHU21623XXSP,2013-06-29 21:21:00,
2013-06-29 17:26:00,69.6,61.3,29.65,SE,135,2.0,2.9,75,0.02,,,0.02,WUHU21623XXSP,2013-06-29 21:26:00,
2013-06-29 17:31:00,69.4,61.3,29.65,ENE,67,0.0,2.9,75,0.02,,,0.02,WUHU21623XXSP,2013-06-29 21:31:00,
2013-06-29 17:37:00,69.1,60.8,29.65,WNW,292,0.0,0.0,75,0.02,,,0.02,WUHU21623XXSP,2013-06-29 21:37:00,
2013-06-29 17:42:00,68.9,60.8,29.65,North,0,0.0,0.0,76,0.00,,,0.02,WUHU21623XXSP,2013-06-29 21:42:00,
2013-06-29 17:47:00,68.7,60.8,29.65,WSW,247,0.0,2.0,76,0.02,,,0.04,WUHU21623XXSP,2013-06-29 21:47:00,
2013-06-29 17:52:00,68.7,60.8,29.65,NW,315,0.0,2.0,76,0.02,,,0.04,WUHU21623XXSP,2013-06-29 21:52:00,
2013-06-29 17:57:00,68.7,61.2,29.65,NNE,22,0.0,0.0,77,0.02,,,0.04,WUHU21623XXSP,2013-06-29 21:57:00,
2013-06-29 18:02:00,68.7,61.2,29.65,NNW,337,0.0,0.0,77,0.02,,,0.04,WUHU21623XXSP,2013-06-29 22:02:00,
2013-06-29 18:07:00,68.7,61.2,29.65,WNW,292,0.0,0.0,77,0.02,,,0.04,WUHU21623XXSP,2013-06-29 22:07:00,
2013-06-29 18:12:00,68.7,60.8,29.65,NW,315,0.0,4.7,76,0.02,,,0.04,WUHU21623XXSP,2013-06-29 22:12:00,
2013-06-29 18:17:00,68.7,60.8,29.65,NW,315,0.0,4.7,76,0.02,,,0.04,WUHU21623XXSP,2013-06-29 22:17:00,
2013-06-29 18:22:00,68.7,60.8,29.66,NNE,22,5.8,5.8,76,0.02,,,0.04,WUHU21623XXSP,2013-06-29 22:22:00,
2013-06-29 18:27:00,68.7,60.5,29.66,SE,135,0.0,5.8,75,0.02,,,0.04,WUHU21623XXSP,2013-06-29 22:27:00,
2013-06-29 18:32:00,68.7,60.5,29.66,SE,135,1.6,5.8,75,0.02,,,0.04,WUHU21623XXSP,2013-06-29 22:32:00,
2013-06-29 18:37:00,68.5,60.3,29.66,West,270,0.0,1.6,75,0.02,,,0.04,WUHU21623XXSP,2013-06-29 22:37:00,
2013-06-29 18:42:00,68.5,60.3,29.66,South,180,0.0,0.0,75,0.00,,,0.04,WUHU21623XXSP,2013-06-29 22:42:00,
2013-06-29 18:47:00,68.4,59.8,29.67,North,0,0.0,0.0,74,0.00,,,0.04,WUHU21623XXSP,2013-06-29 22:47:00,
2013-06-29 18:52:00,68.4,59.8,29.67,NNW,337,1.8,1.8,74,0.00,,,0.04,WUHU21623XXSP,2013-06-29 22:52:00,
2013-06-29 18:57:00,68.4,60.1,29.67,NE,45,0.0,1.8,75,0.00,,,0.04,WUHU21623XXSP,2013-06-29 22:57:00,
2013-06-29 19:02:00,68.4,60.1,29.67,SSE,157,0.0,0.0,75,0.00,,,0.04,WUHU21623XXSP,2013-06-29 23:02:00,
2013-06-29 19:07:00,68.4,60.1,29.67,SSE,157,3.4,3.4,75,0.00,,,0.04,WUHU21623XXSP,2013-06-29 23:07:00,
2013-06-29 19:12:00,68.4,59.8,29.68,South,180,0.0,3.4,74,0.00,,,0.04,WUHU21623XXSP,2013-06-29 23:12:00,
2013-06-29 19:17:00,68.4,60.1,29.68,NNW,337,0.0,3.4,75,0.00,,,0.04,WUHU21623XXSP,2013-06-29 23:17:00,
2013-06-29 19:22:00,68.4,59.8,29.68,NE,45,1.3,1.3,74,0.00,,,0.04,WUHU21623XXSP,2013-06-29 23:22:00,
2013-06-29 19:27:00,68.2,59.6,29.68,NW,315,4.7,4.7,74,0.00,,,0.04,WUHU21623XXSP,2013-06-29 23:27:00,
2013-06-29 19:32:00,68.2,59.2,29.68,WNW,292,0.0,4.7,73,0.00,,,0.04,WUHU21623XXSP,2013-06-29 23:32:00,
2013-06-29 19:37:00,68.0,59.1,29.68,NNE,22,0.0,4.7,73,0.00,,,0.04,WUHU21623XXSP,2013-06-29 23:37:00,
2013-06-29 19:42:00,67.8,58.9,29.68,NNW,337,4.5,4.5,73,0.00,,,0.04,WUHU21623XXSP,2013-06-29 23:42:00,
2013-06-29 19:47:00,67.8,59.3,29.69,West,270,2.7,4.5,74,0.00,,,0.04,WUHU21623XXSP,2013-06-29 23:47:00,
2013-06-29 19:52:00,67.6,59.1,29.68,NNE,22,0.0,2.7,74,0.00,,,0.04,WUHU21623XXSP,2013-06-29 23:52:00,
2013-06-29 19:57:00,67.6,59.1,29.69,NW,315,0.0,2.7,74,0.00,,,0.04,WUHU21623XXSP,2013-06-29 23:57:00,
2013-06-29 20:02:00,67.3,59.1,29.69,West,270,0.0,0.0,75,0.00,,,0.04,WUHU21623XXSP,2013-06-30 00:02:00,
2013-06-29 20:07:00,67.3,59.1,29.69,WSW,247,0.0,0.0,75,0.00,,,0.04,WUHU21623XXSP,2013-06-30 00:07:00,
2013-06-29 20:12:00,67.3,59.1,29.69,SW,225,0.0,0.0,75,0.00,,,0.04,WUHU21623XXSP,2013-06-30 00:12:00,
2013-06-29 20:17:00,67.3,59.1,29.69,NNW,337,0.0,1.6,75,0.00,,,0.04,WUHU21623XXSP,2013-06-30 00:17:00,
2013-06-29 20:22:00,67.1,58.9,29.69,ESE,112,3.6,3.6,75,0.00,,,0.04,WUHU21623XXSP,2013-06-30 00:22:00,
2013-06-29 20:27:00,67.1,58.9,29.70,SSE,157,0.0,3.6,75,0.00,,,0.04,WUHU21623XXSP,2013-06-30 00:27:00,
2013-06-29 20:32:00,66.9,58.9,29.70,South,180,0.0,3.6,75,0.00,,,0.04,WUHU21623XXSP,2013-06-30 00:32:00,
2013-06-29 20:37:00,66.9,58.7,29.70,SSE,157,0.0,0.0,75,0.00,,,0.04,WUHU21623XXSP,2013-06-30 00:37:00,
2013-06-29 20:42:00,66.9,58.7,29.70,SW,225,4.0,4.0,75,0.00,,,0.04,WUHU21623XXSP,2013-06-30 00:42:00,
2013-06-29 20:47:00,66.9,58.7,29.70,SW,225,4.0,4.0,75,0.00,,,0.04,WUHU21623XXSP,2013-06-30 00:47:00,
2013-06-29 20:52:00,66.7,58.5,29.70,NW,315,0.0,4.0,75,0.00,,,0.04,WUHU21623XXSP,2013-06-30 00:52:00,
2013-06-29 20:57:00,66.6,58.4,29.70,SSW,202,0.0,0.0,75,0.00,,,0.04,WUHU21623XXSP,2013-06-30 00:57:00,
2013-06-29 21:02:00,66.6,58.4,29.70,NE,45,0.0,0.0,75,0.00,,,0.04,WUHU21623XXSP,2013-06-30 01:02:00,
2013-06-29 21:07:00,66.6,58.4,29.70,SE,135,0.0,0.0,75,0.00,,,0.04,WUHU21623XXSP,2013-06-30 01:07:00,
2013-06-29 21:12:00,66.4,58.2,29.71,SSE,157,0.0,0.0,75,0.00,,,0.04,WUHU21623XXSP,2013-06-30 01:12:00,
2013-06-29 21:17:00,66.4,58.2,29.71,South,180,0.0,0.0,75,0.00,,,0.04,WUHU21623XXSP,2013-06-30 01:17:00,
2013-06-29 21:22:00,66.4,58.2,29.71,ESE,112,0.0,0.0,75,0.00,,,0.04,WUHU21623XXSP,2013-06-30 01:22:00,
2013-06-29 21:27:00,66.0,57.8,29.71,South,180,0.0,0.0,75,0.00,,,0.04,WUHU21623XXSP,2013-06-30 01:27:00,
2013-06-29 21:32:00,66.0,57.5,29.71,NE,45,0.0,0.0,74,0.00,,,0.04,WUHU21623XXSP,2013-06-30 01:32:00,
2013-06-29 21:37:00,66.0,57.5,29.71,SSE,157,0.0,0.0,74,0.00,,,0.04,WUHU21623XXSP,2013-06-30 01:37:00,
2013-06-29 21:42:00,65.8,57.3,29.71,East,90,0.0,0.0,74,0.00,,,0.04,WUHU21623XXSP,2013-06-30 01:42:00,
2013-06-29 21:47:00,65.8,57.3,29.72,ESE,112,0.0,0.0,74,0.00,,,0.04,WUHU21623XXSP,2013-06-30 01:47:00,
2013-06-29 21:52:00,65.7,57.1,29.72,WSW,247,0.0,0.0,74,0.00,,,0.04,WUHU21623XXSP,2013-06-30 01:52:00,
2013-06-29 21:57:00,65.3,56.9,29.73,NW,315,0.0,0.0,74,0.00,,,0.04,WUHU21623XXSP,2013-06-30 01:57:00,
2013-06-29 22:02:00,65.1,56.6,29.73,East,90,0.0,0.0,74,0.00,,,0.04,WUHU21623XXSP,2013-06-30 02:02:00,
2013-06-29 22:07:00,64.9,56.6,29.73,East,90,0.0,0.0,74,0.00,,,0.04,WUHU21623XXSP,2013-06-30 02:07:00,
2013-06-29 22:12:00,64.8,56.3,29.73,NNW,337,0.0,0.0,74,0.00,,,0.04,WUHU21623XXSP,2013-06-30 02:12:00,
2013-06-29 22:17:00,64.6,56.5,29.73,North,0,0.0,0.0,75,0.00,,,0.04,WUHU21623XXSP,2013-06-30 02:17:00,
2013-06-29 22:22:00,64.4,56.3,29.73,NNW,337,0.0,0.0,75,0.00,,,0.04,WUHU21623XXSP,2013-06-30 02:22:00,
2013-06-29 22:27:00,64.2,56.1,29.73,East,90,0.0,0.0,75,0.00,,,0.04,WUHU21623XXSP,2013-06-30 02:27:00,
2013-06-29 22:32:00,64.0,56.1,29.73,East,90,0.0,0.0,75,0.00,,,0.04,WUHU21623XXSP,2013-06-30 02:32:00,
2013-06-29 22:37:00,64.0,56.3,29.73,East,90,0.0,0.0,76,0.00,,,0.04,WUHU21623XXSP,2013-06-30 02:37:00,
2013-06-29 22:42:00,63.7,55.9,29.73,NNW,337,0.0,0.0,76,0.00,,,0.04,WUHU21623XXSP,2013-06-30 02:42:00,
2013-06-29 22:47:00,63.5,55.9,29.73,NNW,337,0.0,0.0,76,0.00,,,0.04,WUHU21623XXSP,2013-06-30 02:47:00,
2013-06-29 22:52:00,63.5,55.8,29.73,ENE,67,0.0,0.0,76,0.00,,,0.04,WUHU21623XXSP,2013-06-30 02:52:00,
2013-06-29 22:57:00,63.3,55.9,29.73,ENE,67,0.0,0.0,77,0.00,,,0.04,WUHU21623XXSP,2013-06-30 02:57:00,
2013-06-29 23:02:00,63.3,55.9,29.74,ENE,67,0.0,0.0,77,0.00,,,0.04,WUHU21623XXSP,2013-06-30 03:02:00,
2013-06-29 23:07:00,63.3,55.9,29.74,ENE,67,0.0,0.0,77,0.00,,,0.04,WUHU21623XXSP,2013-06-30 03:07:00,
2013-06-29 23:12:00,63.3,55.9,29.74,ENE,67,0.0,0.0,77,0.00,,,0.04,WUHU21623XXSP,2013-06-30 03:12:00,
2013-06-29 23:17:00,63.3,56.3,29.74,SE,135,0.0,0.0,78,0.00,,,0.04,WUHU21623XXSP,2013-06-30 03:17:00,
2013-06-29 23:22:00,63.3,56.3,29.74,SE,135,0.0,0.0,78,0.00,,,0.04,WUHU21623XXSP,2013-06-30 03:22:00,
2013-06-29 23:27:00,63.3,56.3,29.74,SE,135,0.0,0.0,78,0.00,,,0.04,WUHU21623XXSP,2013-06-30 03:27:00,
2013-06-29 23:32:00,63.3,56.3,29.74,ENE,67,0.0,0.0,78,0.00,,,0.04,WUHU21623XXSP,2013-06-30 03:32:00,
2013-06-29 23:37:00,63.3,56.3,29.75,NE,45,0.0,0.0,78,0.00,,,0.04,WUHU21623XXSP,2013-06-30 03:37:00,
2013-06-29 23:43:00,63.3,56.3,29.75,North,0,0.0,0.0,78,0.00,,,0.04,WUHU21623XXSP,2013-06-30 03:43:00,
2013-06-29 23:48:00,63.3,56.3,29.75,ESE,112,0.0,0.0,78,0.00,,,0.04,WUHU21623XXSP,2013-06-30 03:48:00,
2013-06-29 23:53:00,63.3,55.9,29.74,SSE,157,0.0,0.0,77,0.00,,,0.04,WUHU21623XXSP,2013-06-30 03:53:00,
2013-06-29 23:58:00,63.3,55.9,29.75,NNW,337,0.0,0.0,77,0.00,,,0.04,WUHU21623XXSP,2013-06-30 03:58:00,